Date,TemperatureHighF,TemperatureAvgF,TemperatureLowF,DewpointHighF,DewpointAvgF,DewpointLowF,HumidityHigh,HumidityAvg,HumidityLow,PressureMaxIn,PressureMinIn,WindSpeedMaxMPH,WindSpeedAvgMPH,GustSpeedMaxMPH,PrecipitationSumIn
2013-7-1,88,77,63,61,55,50,77,49,28,30.13,30.06,22,5,22,0.00
2013-7-2,92,76,58,59,51,37,79,46,16,30.11,29.94,17,4,17,0.00
2013-7-3,91,77,62,57,50,44,64,42,21,29.94,29.82,33,7,35,0.00
2013-7-4,90,74,63,64,56,48,91,56,30,29.90,29.78,46,6,46,0.35
2013-7-5,78,67,59,64,59,54,95,76,46,29.84,29.75,31,5,31,0.05
2013-7-6,82,68,57,60,55,48,86,66,37,29.93,29.78,37,4,39,0.18
2013-7-7,87,69,54,59,54,48,93,64,28,29.95,29.82,35,5,35,0.03
2013-7-8,88,73,59,60,54,47,86,55,27,29.97,29.82,34,6,34,0.02
2013-7-9,84,72,60,59,54,49,87,57,32,30.09,29.95,23,5,23,0.00
2013-7-10,92,74,58,58,52,44,83,50,21,30.05,29.88,14,2,14,0.00
2013-7-11,94,76,62,61,51,40,66,43,17,29.88,29.72,19,4,23,0.00
2013-7-12,84,72,61,60,53,43,88,55,27,29.90,29.81,23,6,23,0.01
2013-7-13,88,71,54,59,50,40,81,50,23,30.06,29.85,33,8,33,0.00
2013-7-14,85,70,56,57,53,46,79,57,27,30.13,29.95,26,5,26,0.00
2013-7-15,94,77,59,59,51,39,80,46,16,30.00,29.84,13,2,13,0.00
2013-7-16,70,64,60,56,52,46,84,65,45,30.12,29.89,39,14,39,0.00
2013-7-17,88,69,56,61,57,52,91,67,36,30.12,29.96,32,4,32,0.18
2013-7-18,88,74,59,63,56,38,93,57,30,30.07,29.97,18,4,18,0.00
2013-7-19,90,73,55,54,48,42,78,45,22,30.05,29.89,19,3,19,0.00
2013-7-20,88,75,60,54,46,41,71,38,23,29.95,29.82,18,4,18,0.00
2013-7-21,90,75,56,55,44,30,73,40,13,29.86,29.78,21,4,21,0.00
2013-7-22,93,75,54,52,44,35,72,38,17,29.92,29.79,13,4,17,0.00
2013-7-23,89,76,61,52,44,36,58,34,17,30.04,29.92,18,4,18,0.00
2013-7-24,89,75,59,58,50,35,77,46,17,30.05,29.89,20,4,20,0.00
2013-7-25,85,73,61,55,51,45,73,48,28,30.09,29.89,43,9,43,0.00
2013-7-26,86,71,56,55,52,45,83,54,25,30.13,29.97,18,3,18,0.00
2013-7-27,84,72,56,57,52,46,81,50,28,29.98,29.84,21,3,21,0.00
2013-7-28,79,68,57,58,52,48,85,60,37,29.88,29.79,31,5,31,0.02
2013-7-29,76,64,52,56,52,50,90,67,43,29.97,29.86,18,5,21,0.00
2013-7-30,79,65,53,59,53,45,96,68,37,30.15,29.96,49,3,49,0.51
2013-7-31,83,68,52,58,52,39,95,64,21,30.17,30.01,15,4,19,0.00